Weather History for KW29 - October, 2013

Change the Weather History Date:

Friday, October 18, 2013

  Actual Average (KESN) Record (KESN)
Temperature  
Mean Temperature 58 °F -  
Max Temperature 64 °F 65 °F 87 °F (1963)
Min Temperature 51 °F 46 °F 35 °F (1973)
Degree Days  
Heating Degree Days 8    
Growing Degree Days 8 (Base 50)    
Moisture  
Dew Point 44 °F    
Average Humidity 58    
Maximum Humidity 94    
Minimum Humidity 37    
Precipitation  
Precipitation 0.00 in - - ()
Sea Level Pressure  
Sea Level Pressure 29.96 in    
Wind  
Wind Speed 10 mph (WNW)    
Max Wind Speed 23 mph    
Max Gust Speed 30 mph    
Visibility 10 miles    
Events      
Averages and records for this station are not official NWS values.
T = Trace of Precipitation, MM = Missing Value Source: NWS Daily Summary

Daily Weather History Graph

Daily Weather History Graph

Search for Another Location

Airport or City:

Trip Planner

Search our weather history database for the weather conditions in past years. The results will help you decide how hot, cold, wet, or windy it might be!

Date:

Astronomy

Oct. 18, 2013 Rise Set
Actual Time 7:18 AM EDT 6:22 PM EDT
Civil Twilight 6:51 AM EDT 6:49 PM EDT
Nautical Twilight 6:20 AM EDT 7:20 PM EDT
Astronomical Twilight 5:49 AM EDT 7:50 PM EDT
Moon 6:10 PM EDT (10/18) 6:51 AM EDT (10/18)
Length of Visible Light 11h 58m
Length of Day
11h 04m
Full, 100% of the Moon is Illuminated
Oct 18
Full
Oct 18
Full
Oct 26
Last Quarter
Nov 3
New
Nov 10
First Quarter

Hourly Weather History & Observations

Time (EDT) Temp. Dew Point Humidity Pressure Visibility Wind Dir Wind Speed Gust Speed Precip Events Conditions
12:13 AM 64.4 °F 57.2 °F 77% 29.81 in 10.0 mi WNW 11.5 mph 20.7 mph N/A   Mostly Cloudy
12:33 AM 64.4 °F 55.4 °F 73% 29.81 in 10.0 mi WNW 15.0 mph - N/A   Scattered Clouds
12:53 AM 64.4 °F 57.2 °F 77% 29.82 in 10.0 mi WNW 10.4 mph 17.3 mph N/A   Scattered Clouds
1:13 AM 62.6 °F 55.4 °F 77% 29.83 in 10.0 mi WNW 12.7 mph 23.0 mph N/A   Clear
1:33 AM 62.6 °F 53.6 °F 72% 29.84 in 10.0 mi WNW 17.3 mph 27.6 mph N/A   Clear
1:53 AM 60.8 °F 51.8 °F 72% 29.85 in 10.0 mi NW 18.4 mph 23.0 mph N/A   Clear
2:13 AM 60.8 °F 48.2 °F 63% 29.85 in 10.0 mi WNW 21.9 mph 27.6 mph N/A   Mostly Cloudy
2:33 AM 60.8 °F 46.4 °F 59% 29.87 in 10.0 mi WNW 17.3 mph 29.9 mph N/A   Scattered Clouds
2:53 AM 59.0 °F 44.6 °F 59% 29.87 in 10.0 mi NW 23.0 mph 27.6 mph N/A   Scattered Clouds
3:13 AM 59.0 °F 42.8 °F 55% 29.88 in 10.0 mi WNW 18.4 mph 27.6 mph N/A   Clear
3:33 AM 59.0 °F 42.8 °F 55% 29.88 in 10.0 mi NW 15.0 mph 23.0 mph N/A   Clear
3:53 AM 59.0 °F 42.8 °F 55% 29.89 in 10.0 mi WNW 10.4 mph - N/A   Clear
4:13 AM 57.2 °F 42.8 °F 59% 29.89 in 10.0 mi West 5.8 mph - N/A   Clear
4:33 AM 57.2 °F 42.8 °F 59% 29.89 in 10.0 mi WNW 9.2 mph - N/A   Clear
4:53 AM 57.2 °F 42.8 °F 59% 29.90 in 10.0 mi WNW 9.2 mph - N/A   Clear
5:13 AM 57.2 °F 42.8 °F 59% 29.91 in 10.0 mi WNW 11.5 mph 16.1 mph N/A   Clear
5:33 AM 57.2 °F 42.8 °F 59% 29.92 in 10.0 mi WNW 9.2 mph - N/A   Clear
5:53 AM 57.2 °F 44.6 °F 63% 29.92 in 10.0 mi WNW 9.2 mph - N/A   Clear
6:13 AM 57.2 °F 42.8 °F 59% 29.92 in 10.0 mi West 6.9 mph - N/A   Clear
6:33 AM 55.4 °F 42.8 °F 63% 29.92 in 10.0 mi West 6.9 mph - N/A   Clear
6:53 AM 55.4 °F 44.6 °F 67% 29.93 in 10.0 mi West 8.1 mph - N/A   Clear
7:33 AM 55.4 °F 44.6 °F 67% 29.95 in 10.0 mi West 9.2 mph - N/A   Clear
7:53 AM 55.4 °F 44.6 °F 67% 29.95 in 10.0 mi West 9.2 mph - N/A   Clear
8:13 AM 55.4 °F 44.6 °F 67% 29.97 in 10.0 mi West 6.9 mph - N/A   Clear
8:34 AM 57.2 °F 42.8 °F 59% 29.98 in 10.0 mi WNW 10.4 mph - N/A   Clear
8:54 AM 57.2 °F 41.0 °F 55% 29.99 in 10.0 mi WNW 10.4 mph - N/A   Clear
9:14 AM 59.0 °F 41.0 °F 51% 29.99 in 10.0 mi WNW 11.5 mph 21.9 mph N/A   Clear
9:34 AM 59.0 °F 41.0 °F 51% 29.99 in 10.0 mi NW 13.8 mph 19.6 mph N/A   Clear
9:54 AM 59.0 °F 41.0 °F 51% 29.99 in 10.0 mi NW 15.0 mph 21.9 mph N/A   Clear
10:14 AM 60.8 °F 41.0 °F 48% 30.00 in 10.0 mi WNW 11.5 mph 18.4 mph N/A   Clear
10:34 AM 60.8 °F 41.0 °F 48% 30.01 in 10.0 mi West 9.2 mph - N/A   Clear
10:54 AM 60.8 °F 41.0 °F 48% 30.01 in 10.0 mi WNW 12.7 mph 17.3 mph N/A   Clear
11:14 AM 60.8 °F 41.0 °F 48% 30.01 in 10.0 mi West 8.1 mph - N/A   Clear
11:34 AM 62.6 °F 41.0 °F 45% 30.01 in 10.0 mi WNW 8.1 mph - N/A   Clear
11:54 AM 62.6 °F 41.0 °F 45% 30.01 in 10.0 mi WNW 10.4 mph - N/A   Clear
12:14 PM 62.6 °F 41.0 °F 45% 30.01 in 10.0 mi WNW 9.2 mph - N/A   Clear
12:34 PM 62.6 °F 41.0 °F 45% 30.00 in 10.0 mi WNW 8.1 mph - N/A   Clear
12:54 PM 62.6 °F 41.0 °F 45% 30.00 in 10.0 mi WNW 6.9 mph - N/A   Clear
1:14 PM 62.6 °F 41.0 °F 45% 29.99 in 10.0 mi West 5.8 mph - N/A   Clear
1:34 PM 64.4 °F 41.0 °F 42% 29.98 in 10.0 mi West 6.9 mph - N/A   Clear
1:54 PM 64.4 °F 41.0 °F 42% 29.98 in 10.0 mi West 6.9 mph - N/A   Clear
2:14 PM 64.4 °F 41.0 °F 42% 29.98 in 10.0 mi West 8.1 mph - N/A   Clear
2:34 PM 64.4 °F 41.0 °F 42% 29.98 in 10.0 mi West 8.1 mph - N/A   Clear
2:54 PM 64.4 °F 41.0 °F 42% 29.97 in 10.0 mi WNW 6.9 mph - N/A   Clear
3:14 PM 64.4 °F 41.0 °F 42% 29.97 in 10.0 mi West 6.9 mph - N/A   Clear
3:34 PM 64.4 °F 39.2 °F 40% 29.97 in 10.0 mi West 5.8 mph - N/A   Clear
3:54 PM 64.4 °F 41.0 °F 42% 29.97 in 10.0 mi West 6.9 mph - N/A   Clear
4:14 PM 64.4 °F 41.0 °F 42% 29.97 in 10.0 mi WNW 5.8 mph - N/A   Clear
4:34 PM 64.4 °F 41.0 °F 42% 29.97 in 10.0 mi WNW 6.9 mph - N/A   Clear
4:55 PM 64.4 °F 39.2 °F 40% 29.97 in 10.0 mi West 8.1 mph - N/A   Clear
5:15 PM 64.4 °F 39.2 °F 40% 29.97 in 10.0 mi WNW 8.1 mph - N/A   Clear
5:35 PM 64.4 °F 37.4 °F 37% 29.98 in 10.0 mi WNW 9.2 mph - N/A   Clear
5:55 PM 62.6 °F 39.2 °F 42% 29.98 in 10.0 mi West 8.1 mph - N/A   Clear
6:15 PM 62.6 °F 41.0 °F 45% 29.98 in 10.0 mi WNW 5.8 mph - N/A   Clear
6:35 PM 62.6 °F 39.2 °F 42% 29.98 in 10.0 mi WNW 5.8 mph - N/A   Clear
6:55 PM 62.6 °F 41.0 °F 45% 29.99 in 10.0 mi West 4.6 mph - N/A   Clear
7:15 PM 60.8 °F 42.8 °F 52% 29.99 in 10.0 mi West 4.6 mph - N/A   Clear
7:35 PM 60.8 °F 42.8 °F 52% 30.00 in 10.0 mi West 4.6 mph - N/A   Clear
7:55 PM 60.8 °F 42.8 °F 52% 29.99 in 10.0 mi WNW 3.5 mph - N/A   Clear
8:15 PM 59.0 °F 44.6 °F 59% 30.00 in 10.0 mi Calm Calm - N/A   Clear
8:35 PM 55.4 °F 44.6 °F 67% 30.01 in 10.0 mi Calm Calm - N/A   Clear
8:55 PM 55.4 °F 46.4 °F 72% 30.01 in 10.0 mi Calm Calm - N/A   Clear
9:15 PM 53.6 °F 48.2 °F 82% 30.02 in 10.0 mi Calm Calm - N/A   Clear
9:35 PM 53.6 °F 48.2 °F 82% 30.02 in 10.0 mi Calm Calm - N/A   Clear
9:55 PM 53.6 °F 48.2 °F 82% 30.02 in 10.0 mi Calm Calm - N/A   Clear
10:15 PM 53.6 °F 50.0 °F 88% 30.02 in 10.0 mi Calm Calm - N/A   Clear
10:35 PM 53.6 °F 50.0 °F 88% 30.02 in 10.0 mi Calm Calm - N/A   Clear
10:55 PM 53.6 °F 50.0 °F 88% 30.02 in 10.0 mi Calm Calm - N/A   Clear
11:15 PM 53.6 °F 50.0 °F 88% 30.02 in 10.0 mi Calm Calm - N/A   Clear
11:35 PM 51.8 °F 50.0 °F 94% 30.02 in 10.0 mi Calm Calm - N/A   Clear
11:55 PM 51.8 °F 50.0 °F 94% 30.01 in 10.0 mi Calm Calm - N/A   Clear